Location: Newark
(11.2914°S, 14.4718°E)
Time: 23:59:51
(UTC+00:00)

Vanguard 3 - Visible Passes

Search period start: 23 October 2019 00:00
Search period end: 02 November 2019 00:00
Orbit: 508 x 3262 km, 33.3° (Epoch: 23 October)

Date Brightness Start Highest point End Pass type
(mag) Time Alt. Az. Time Alt. Az. Time Alt. Az.
23 Oct 10.4 03:40:04 10° NNE 03:42:53 12° NE 03:46:08 10° ENE visible
23 Oct 9.4 17:11:57 10° WSW 17:25:56 53° NW 17:33:51 10° NNE visible
24 Oct 9.9 18:14:40 10° W 18:23:25 23° NW 18:29:25 10° N visible
25 Oct 10.2 03:22:56 10° NNE 03:26:28 13° NE 03:30:50 10° ENE visible
26 Oct 10.2 17:58:18 10° W 18:06:52 20° NW 18:13:00 10° N visible
27 Oct 9.8 03:06:13 10° NNE 03:10:05 15° NE 03:15:07 10° E visible
28 Oct 9.2 04:00:56 10° NNW 04:07:17 44° NE 04:18:16 10° ESE visible
28 Oct 10.4 17:42:07 10° W 17:50:17 18° NW 17:56:23 10° N visible
29 Oct 9.5 02:49:44 10° N 02:53:45 18° NE 02:59:12 10° E visible
30 Oct 8.7 03:45:03 10° NW 03:50:56 52° NE 04:01:20 10° ESE visible
30 Oct 10.6 17:26:10 10° WNW 17:33:40 16° NW 17:39:34 10° NNW visible
31 Oct 9.1 02:35:09 17° NNE 02:37:28 21° NE 02:43:08 10° E visible
01 Nov 8.1 03:30:12 17° NW 03:34:42 63° NE 03:44:26 10° ESE visible
01 Nov 10.8 17:10:36 10° WNW 17:17:04 14° NW 17:22:27 10° NNW visible
